Location: Alsip
(41.6689°N, 87.7387°W)
Time: 09:48:13
(UTC+00:00)

GEOS 3 Rocket - Pass Details

Date: 28 October 2020
Orbit: 770 x 850 km, 115.0° (Epoch: 25 November)

Event Time Altitude Azimuth Distance (km) Brightness Sun altitude
Exits shadow 00:09:05 23° 83° (E) 1,721 4.7 -15.1°
Maximum altitude 00:11:22 32° 41° (NE) 1,419 4.5 -15.5°
Drops below altitude 10° 00:16:04 10° 341° (NNW) 2,475 6.3 -16.4°
Sets 00:18:37 0° 332° (NNW) 3,418 7.2 -16.9°
